Zurück zum Katalog

OPS 4682 DEB

AktivPO
NORAD 55114·DEBRIS·🇺🇸 United States

Gestartet Apr 3, 1965 von Vandenberg Space Force Base

Loading…

Nächste Überflüge (nächste 24 Stunden)

TLE

AktuellSource: Space-Track

Epoche: Sep 13, 2026, 18:38 UTC

1 55114U 65027HD  26256.77660681  .00000101  00000-0  32350-3 0  9996
2 55114  90.2700  20.3007 0032517 215.8550 144.0389 12.97421303559372

Verfolge OPS 4682 DEB in Echtzeit mit AllMySat

Download on the App Store